Terminal Aerodrome Forecast
Issued by NWS Caribou, ME

Home | Current Version | Previous Version | Text Only | Print | Product List | Glossary On
Versions: 1 2 3 4 5 6 7 8 9 10 11 12 13 14 15 16 17 18 19
000
FTUS41 KCAR 211100 AAA
TAFCAR
TAF AMD
KCAR 211123Z 2111/2206 00000KT P6SM FEW250
      TEMPO 2111/2113 BKN004
     FM211800 09005KT P6SM SCT070=

USA.gov is the U.S. government's official web portal to all federal, state and local government web resources and services.